Skip Page Navigation
NASA JPL Caltech
NASA Logo - Jet Propulsion Laboratory + View the NASA Portal
+ Center for Near-Earth Object Studies
JPL Home Earth Solar System Stars & Galaxies Technology
JPL Solar System Dynamics
BODIES ORBITS EPHEMERIDES TOOLS PHYSICAL DATA DISCOVERY FAQ SITE MAP
JPL Small-Body Database Browser
Search: [ help ]  
4341 Poseidon (1987 KF)
Classification: Apollo [NEO]          SPK-ID: 2004341
Ephemeris | Orbit Diagram | Orbital Elements | Mission Design | Physical Parameters | Discovery Circumstances | Close-Approach Data ]

[ show orbit diagram ]
Orbital Elements at Epoch 2459200.5 (2020-Dec-17.0) TDB
Reference: JPL 116 (heliocentric ecliptic J2000)
 Element Value Uncertainty (1-sigma)   Units 
e .6798486775595314 4.5174e-08  
a 1.835801316144916 5.765e-09 au
q .5877342191017476 8.4087e-08 au
i 11.84679077907927 6.0467e-06 deg
node 108.0899629012707 2.204e-05 deg
peri 15.738371631866 2.4033e-05 deg
M 208.6473907764273 1.8376e-05 deg
tp 2459582.465689564699
(2022-Jan-02.96568956)
4.7854e-05 TDB
period 908.5251251940443
2.49
4.2796e-06
1.172e-08
d
yr
n .3962466089455816 1.8665e-09 deg/d
Q 3.083868413188084 9.6844e-09 au
  Orbit Determination Parameters
   # obs. used (total)      530  
   data-arc span      12158 days (33.29 yr)  
   first obs. used      1987-05-29  
   last obs. used      2020-09-10  
   planetary ephem.      DE441  
   SB-pert. ephem.      SB441-N16  
   condition code      0  
   norm. resid. RMS      .5563  
   source      ORB  
   producer      Otto Matic  
   solution date      2021-Apr-12 16:13:59  

Additional Information
 Earth MOID = .194202 au 
 Jupiter MOID = 2.02738 au 
 T_jup = 3.687 
[ show covariance matrix ]

Ephemeris | Orbit Diagram | Orbital Elements | Mission Design | Physical Parameters | Discovery Circumstances | Close-Approach Data ]

Physical Parameter Table
Parameter Symbol Value Units Sigma Reference Notes
absolute magnitude H 15.92   n/a E2020-QM5  
diameter diameter 3.177 km 0.651 urn:nasa:pds:neowise_diameters_albedos::2.0[neos] (http://adsabs.harvard.edu/abs/2017AJ....154..168M)  
rotation period rot_per 6.262 h n/a LCDB (Rev. 2020-October); Warner et al., 2009 Result based on less than full coverage, so that the period may be wrong by 30 percent or so.
Published Reference List:
[Pravec, P.; Wolf, M.; Sarounova, L. (1998) Icarus 136, 124-153.]
[Krugly, Yu.N.; Bel'skaya, I.N.; Shevchenko, V.G.; et al. (2002) Icarus 158, 294-304.]
geometric albedo albedo 0.054   0.091 urn:nasa:pds:neowise_diameters_albedos::2.0[neos] (http://adsabs.harvard.edu/abs/2017AJ....154..168M)  
SMASSII spectral type spec_B O   n/a EAR-A-5-DDR-TAXONOMY-V4.0 based on a high-resolution spectrum by Xu et al. (1995) or Bus and Binzel (2002)

4341 Poseidon (1987 KF)          Discovered 1987-May-29 by Shoemaker, C. S. at Palomar
Reference: DISCOVERY.DBLast Updated: 2003-08-29

[ hide close-approach data ]
Close-Approach Data   ...sorted by Date/Time (TDB)
Date/Time (TDB) Time Uncertainty
(days_HH:MM)
Body Nominal Distance (au) Minimum Distance (au) Maximum Distance (au) V-relative (km/s) V-infinity (km/s) JD (TDB) Time Uncertainty (minutes) Semi-major axis (km) Semi-minor axis (km) range-LOV angle (deg) N-sigma BP Orbit Ref. Reference Modified
1900-Apr-23 17:40 00:01 Earth 0.202455596544187 0.202455291941506 0.202455901148179 19.9187895635609 19.9181288292952 2415133.236293050 1.19077162330041 641.721071484429 15.1770810235829 -89.9467002807431 1985987.36913546 T 116 CATAB v2.0f-lin.ifort 2021-Apr-12 16:14:04 2021-Apr-12 16:14
1902-Aug-11 16:17 00:02 Venus 0.0905036065628983 0.0905018365527916 0.0905053786171446 18.4316027377179 18.4303009046598 2415973.178257692 1.97232691087084 688.23707120622 9.86231240056503 82.6747213582792 1320610.43010816 T 116 CATAB v2.0f-lin.ifort 2021-Apr-12 16:14:04 2021-Apr-12 16:14
1905-Feb-18 22:23 00:03 Venus 0.124047072793343 0.124044565993087 0.124049580077322 16.3297948812981 16.3287228290508 2416895.432433154 3.05416751564778 407.071855532294 9.46399090130397 -72.1634422663472 1687058.60956846 T 116 CATAB v2.0f-lin.ifort 2021-Apr-12 16:14:04 2021-Apr-12 16:14
1905-Apr-09 07:08 00:02 Earth 0.262239876614697 0.262232828783339 0.26224692474304 15.1423852502562 15.141714240312 2416944.797366812 2.32026606085293 563.488697310578 14.6300564365186 51.43394309664 2225158.38044585 T 116 CATAB v2.0f-lin.ifort 2021-Apr-12 16:14:04 2021-Apr-12 16:14
1907-Sep-02 22:45 00:03 Venus 0.114395396913253 0.114391976102823 0.114398818525437 16.0963358885301 16.0951565206909 2417821.447920715 3.04423020755716 507.861548466451 9.68210865554366 70.4005440053937 1549428.47761164 T 116 CATAB v2.0f-lin.ifort 2021-Apr-12 16:14:04 2021-Apr-12 16:14
1910-Mar-09 19:13 00:01 Venus 0.126245858046939 0.12623735203836 0.126254365040623 21.5554375200512 21.5546395198445 2418740.300667692 1.41459679591189 699.576030446059 11.1500883201816 -52.6852779128225 1291933.51271937 T 116 CATAB v2.0f-lin.ifort 2021-Apr-12 16:14:04 2021-Apr-12 16:14
1910-Mar-10 07:44 00:03 Earth 0.350298447389769 0.350294395680746 0.350302499205044 16.6776395246559 16.6771834399594 2418740.822083533 2.64363674497648 365.61542888178 11.4761449116065 56.4990045787547 2913569.37329293 T 116 CATAB v2.0f-lin.ifort 2021-Apr-12 16:14:04 2021-Apr-12 16:14
1915-Feb-17 23:06 00:02 Earth 0.388695721225539 0.388694183207292 0.388697259307639 19.8596412197375 19.8592960482034 2420546.462695872 1.97271759975398 262.119094195886 10.1777554111763 73.1294498002622 4406162.55754247 T 116 CATAB v2.0f-lin.ifort 2021-Apr-12 16:14:04 2021-Apr-12 16:14
1920-Jan-27 22:37 00:02 Earth 0.400656890898892 0.400656559157117 0.40065722267221 21.5796019640004 21.5792937875763 2422351.442160996 1.67436067923034 221.909991650272 9.89942920154825 -86.5721858674695 5017467.02450981 T 116 CATAB v2.0f-lin.ifort 2021-Apr-12 16:14:04 2021-Apr-12 16:14
1925-Jan-06 05:42 00:02 Earth 0.385104186283077 0.385102541715242 0.385105830899444 20.9715077376263 20.9711778182077 2424156.737613559 1.57949325957415 232.095386883314 9.83928353268391 -69.4457792443655 4492705.32641867 T 116 CATAB v2.0f-lin.ifort 2021-Apr-12 16:14:04 2021-Apr-12 16:14
1929-Dec-18 10:15 00:02 Earth 0.348254968161035 0.348252120273941 0.348257816115791 18.7505575503843 18.7501495077191 2425963.926882444 1.64013476074229 281.219911088868 10.4245211619093 -59.7379689828289 3438889.2450996 T 116 CATAB v2.0f-lin.ifort 2021-Apr-12 16:14:04 2021-Apr-12 16:14
1934-Nov-23 14:52 00:02 Earth 0.276964458311888 0.276960166835649 0.276968749932481 16.0901620446998 16.0895641344937 2427765.119172852 1.79165527166584 381.530192047285 12.7173581474288 -55.9290677804216 2364745.63969625 T 116 CATAB v2.0f-lin.ifort 2021-Apr-12 16:14:04 2021-Apr-12 16:14
1939-Nov-03 08:37 < 00:01 Earth 0.20059644779222 0.200594904936278 0.20059799091504 18.7199158598668 18.7192062927888 2429570.859230647 0.857673848552556 379.472530721163 14.5770342099166 -78.50641902407 2005490.83737103 T 116 CATAB v2.0f-lin.ifort 2021-Apr-12 16:14:04 2021-Apr-12 16:14
1944-Oct-22 18:15 < 00:01 Earth 0.223863438293014 0.223860079686083 0.223866797069673 23.1104460914243 23.1099310695231 2431386.260734536 0.56145092975172 351.098845338228 14.7552175520854 61.6027356194383 1934975.251876 T 116 CATAB v2.0f-lin.ifort 2021-Apr-12 16:14:04 2021-Apr-12 16:14
1949-Oct-13 21:46 < 00:01 Earth 0.328827237928919 0.328822179532685 0.328832296371285 27.8329633527497 27.8326722224577 2433203.406642376 0.447872385364328 318.549554953373 14.6113204720926 37.6886665532359 1980990.93769824 T 116 CATAB v2.0f-lin.ifort 2021-Apr-12 16:14:04 2021-Apr-12 16:14
1954-Oct-05 10:56 < 00:01 Earth 0.472662432030273 0.472657446900326 0.472667417172579 32.8176559045032 32.8174841315228 2435020.955496205 0.367710015270168 276.320560968974 14.2812121181523 25.9272232788372 2090767.88134213 T 116 CATAB v2.0f-lin.ifort 2021-Apr-12 16:14:04 2021-Apr-12 16:14
1962-Apr-13 08:09 < 00:01 Venus 0.0916767723459348 0.0916755737953923 0.0916779711249111 19.0343012569528 19.0330567799093 2437767.839780951 0.5939449787913 239.08765443364 10.0404641131442 75.7211099568591 1282911.04722387 T 116 CATAB v2.0f-lin.ifort 2021-Apr-12 16:14:04 2021-Apr-12 16:14
1964-Oct-18 05:23 < 00:01 Venus 0.118718868316702 0.118717608000196 0.118720128691103 16.2083677381384 16.2072391771441 2438686.724336837 0.956243075189616 146.387128540238 9.34564900240031 -64.8230488532682 1576134.78392085 T 116 CATAB v2.0f-lin.ifort 2021-Apr-12 16:14:04 2021-Apr-12 16:14
1967-Apr-30 01:09 < 00:01 Venus 0.126013188812227 0.12601261567733 0.126013761982036 16.2890232802982 16.2879653135848 2439610.547679185 0.874116917616047 114.680629438886 9.60997848940634 76.3771875624282 1724268.13701608 T 116 CATAB v2.0f-lin.ifort 2021-Apr-12 16:14:04 2021-Apr-12 16:14
1969-Nov-06 00:30 < 00:01 Venus 0.099035699874277 0.0990350304346953 0.0990363694154379 18.718940890736 18.7177694792267 2440531.521013893 0.492369892237504 170.363121590058 10.747626223722 -79.2880704606624 1313712.26256322 T 116 CATAB v2.0f-lin.ifort 2021-Apr-12 16:14:04 2021-Apr-12 16:14
1977-May-16 09:08 < 00:01 Earth 0.439002432117155 0.439000460083299 0.439004404154055 31.6358554406128 31.6356635882443 2443279.880333812 0.178025973202957 114.37647700814 14.4972177560885 -30.9869705320859 2287120.53150934 T 116 CATAB v2.0f-lin.ifort 2021-Apr-12 16:14:04 2021-Apr-12 16:14
1982-May-07 15:17 < 00:01 Earth 0.292768758041858 0.292767429951347 0.29277008613846 26.3423086624419 26.3419631715201 2445097.136865542 0.15767554315404 95.1507623652109 14.7811822201398 -46.6235181377915 2097008.15993602 T 116 CATAB v2.0f-lin.ifort 2021-Apr-12 16:14:04 2021-Apr-12 16:14
1987-Apr-28 16:32 < 00:01 Earth 0.205079997099236 0.205079606261889 0.205080387940617 21.3902637811223 21.3896563751187 2446914.189046335 0.14420156812236 73.2684534359495 14.94731549684 -79.9592770393274 1990662.45565275 T 116 CATAB v2.0f-lin.ifort 2021-Apr-12 16:14:04 2021-Apr-12 16:14
